Weather in Bogorodskoye

Russia / Oryol Oblast     52°30′03″N   36°02′50″E
temp.,
°C
wind,
m/s
gust,
m/s
humid.,
%
clouds,
%
prec.,
mm/h
press.,
hPa
HPBL,
m
14 april, wed
wed1400:00+12sse4108131 0.0 1020381
03:00+9ssw369373 0.0 1020138
06:00+8sse3593100 0.0 102095
09:00+12sse347898 0.0 1020416
12:00+15sse346399 0.0 10181049
15:00+16ssw235397 0.4 10161162
18:00+16wnw3360100 0.3 1015110
21:00+13s61263100 0.3 1015376
15 april, thu
thu1500:00+11ese2264100 0.0 101427
03:00+11ese3867100 0.0 1014193
06:00+10ese496998 0.0 1013194
09:00+13se466088 0.0 1013380
12:00+16se565397 0.3 10131335
15:00+16s464839 1.4 10121795
18:00+14s4755100 0.0 1012278
21:00+12sse3467100 0.0 1014116
16 april, fri
fri1600:00+10sse367655 0.0 1014158
03:00+9ne228599 0.0 101423
06:00+9ese3987100 0.6 1015265
09:00+10ese4882100 2.4 1015505
12:00+13se4664100 0.8 10161159
15:00+15s5746100 1.1 10151935
18:00+13sse345867 0.0 1017733
21:00+10ese116836 0.0 101810
17 april, sat
sat1700:00+9ne337646 0.1 101847
03:00+8nne358357 0.4 101882
06:00+7ne2394100 0.2 101854
09:00+10ne5990100 0.4 1018549
12:00+13ene71170100 0.3 10171185
15:00+14e81369100 1.3 10171482
18:00+11e5117968 0.8 1019689
21:00+9e5129196 1.9 1020753
18 april, sun
sun1800:00+8ese4983100 0.3 1021532
03:00+7ese358862 0.3 1022150
06:00+6ene3690100 0.0 1022186
09:00+9e4577100 0.0 1023557
12:00+12ene4462100 0.1 10231399
15:00+11ene7772100 0.9 10231205
18:00+8ene6985100 0.6 1025738
21:00+8e41181100 0.6 1025647